Nuiqsut, AK

5:49 PM AKST on January 18, 2017 (GMT -0900)
Nuiqsut

Weather History for PAQT - April, 2014

Change the Weather History Date:

Saturday, April 19, 2014

  Actual Average (PAKU) Record (PAKU)
Temperature  
Mean Temperature 4 °F -  
Max Temperature 14 °F 8 °F 35 °F (2008)
Min Temperature -6 °F 0 °F -28 °F (1985)
Degree Days  
Heating Degree Days 61    
Moisture  
Dew Point 4 °F    
Average Humidity 90    
Maximum Humidity 96    
Minimum Humidity 84    
Precipitation  
Precipitation 0.00 in - - ()
Sea Level Pressure  
Sea Level Pressure 30.03 in    
Wind  
Wind Speed 9 mph (NNE)    
Max Wind Speed 14 mph    
Max Gust Speed -    
Visibility 8 miles    
Events Snow    
Averages and records for this station are not official NWS values.
T = Trace of Precipitation, MM = Missing Value Source: NWS Daily Summary

Daily Weather History Graph

Daily Weather History Graph

Search for Another Location

Airport or City:

Trip Planner

Search our weather history database for the weather conditions in past years. The results will help you decide how hot, cold, wet, or windy it might be!

Date:

Astronomy

Apr. 19, 2014 Rise Set
Actual Time 5:36 AM AKDT 10:33 PM AKDT
Civil Twilight 4:02 AM AKDT 12:10 AM AKDT
Nautical Twilight Sun does not rise Sun does not rise
Astronomical Twilight Sun does not rise Sun does not rise
Moon 4:38 AM AKDT 6:51 AM AKDT
Length of Visible Light 20h 08m
Length of Day
16h 56m
Waning Gibbous, 77% of the Moon is Illuminated
Apr 19
Waning Gibbous
Apr 21
Last Quarter
Apr 28
New
May 6
First Quarter
May 14
Full

Hourly Weather History & Observations

Time (AKDT) Temp. Windchill Dew Point Humidity Pressure Visibility Wind Dir Wind Speed Gust Speed Precip Events Conditions
1:53 AM -0.0 °F -14.2 °F -2.0 °F 91% 29.96 in 10.0 mi NNE 8.1 mph - 0.00 in   Overcast
2:13 AM -2.0 °F -16.6 °F -2.9 °F 96% 29.96 in 10.0 mi NNE 8.1 mph - 0.00 in   Scattered Clouds
2:53 AM -5.1 °F -21.5 °F -6.0 °F 96% 29.97 in 10.0 mi NNE 9.2 mph - 0.00 in   Clear
3:53 AM -6.0 °F -20.1 °F -8.0 °F 91% 29.98 in 10.0 mi NNE 6.9 mph - N/A   Partly Cloudy
4:53 AM -6.0 °F -16.9 °F -8.0 °F 91% 29.98 in 10.0 mi North 4.6 mph - N/A   Clear
5:53 AM -0.0 °F -14.2 °F -2.0 °F 91% 29.98 in 10.0 mi NNE 8.1 mph - 0.00 in   Overcast
6:53 AM 3.0 °F -11.5 °F 1.0 °F 91% 29.99 in 3.0 mi North 9.2 mph - 0.00 in Snow Light Snow
7:40 AM 6.1 °F -5.6 °F 5.0 °F 95% 29.99 in 2.5 mi North 6.9 mph - 0.00 in Snow Light Snow
7:50 AM 6.8 °F -4.8 °F 5.0 °F 92% 29.99 in 3.0 mi NNE 6.9 mph - 0.00 in Snow Light Snow
7:53 AM 7.0 °F -4.5 °F 5.0 °F 92% 30.00 in 4.0 mi NNE 6.9 mph - 0.00 in Snow Light Snow
8:53 AM 10.0 °F -0.9 °F 9.0 °F 95% 30.00 in 10.0 mi NNE 6.9 mph - 0.00 in   Overcast
9:53 AM 12.0 °F 0.5 °F 10.0 °F 92% 30.01 in 10.0 mi NE 8.1 mph - 0.00 in   Overcast
10:53 AM 12.9 °F 0.7 °F 10.0 °F 88% 30.01 in 10.0 mi NE 9.2 mph - 0.00 in   Overcast
11:53 AM 14.0 °F 0.5 °F 10.9 °F 88% 30.02 in 10.0 mi NE 11.5 mph - 0.00 in   Overcast
12:53 PM 12.9 °F -1.6 °F 10.9 °F 92% 30.03 in 3.0 mi NE 12.7 mph - 0.00 in Snow Light Snow
1:27 PM 14.0 °F -0.8 °F 10.0 °F 84% 30.03 in 2.5 mi NE 13.8 mph - 0.00 in Snow Light Snow
1:48 PM 14.0 °F 1.2 °F 10.4 °F 86% 30.03 in 3.0 mi NE 10.4 mph - 0.00 in Snow Light Snow
1:53 PM 14.0 °F 0.5 °F 10.9 °F 88% 30.04 in 4.0 mi NE 11.5 mph - 0.00 in Snow Light Snow
2:53 PM 14.0 °F 0.5 °F 10.9 °F 88% 30.04 in 4.0 mi NE 11.5 mph - 0.00 in Snow Light Snow
3:53 PM 14.0 °F 0.5 °F 10.9 °F 88% 30.04 in 10.0 mi NE 11.5 mph - 0.00 in   Overcast
4:23 PM 12.0 °F -3.4 °F 9.0 °F 88% 30.04 in 10.0 mi NE 13.8 mph - N/A   Scattered Clouds
4:53 PM 9.0 °F -5.9 °F 6.1 °F 88% 30.05 in 10.0 mi NE 11.5 mph - N/A   Clear
5:53 PM 9.0 °F -4.2 °F 5.0 °F 84% 30.06 in 10.0 mi NE 9.2 mph - 0.00 in   Clear
6:53 PM 7.0 °F -4.5 °F 3.9 °F 87% 30.06 in 10.0 mi NNE 6.9 mph - 0.00 in   Clear
7:53 PM 5.0 °F -6.9 °F 1.9 °F 87% 30.07 in 10.0 mi NNE 6.9 mph - 0.00 in   Clear
8:53 PM 3.0 °F -10.5 °F 1.0 °F 91% 30.08 in 10.0 mi NNE 8.1 mph - 0.00 in   Clear
9:53 PM -0.0 °F -14.2 °F -2.0 °F 91% 30.09 in 9.0 mi North 8.1 mph - 0.00 in   Clear
10:41 PM -0.0 °F -14.2 °F -2.0 °F 91% 30.09 in 7.0 mi North 8.1 mph - 0.00 in   Mostly Cloudy
10:53 PM -0.9 °F -15.3 °F -2.0 °F 95% 30.10 in 9.0 mi North 8.1 mph - 0.00 in   Overcast
11:53 PM 1.9 °F -11.8 °F -0.0 °F 91% 30.10 in 10.0 mi North 8.1 mph - 0.00 in   Overcast